494  
NZUS52 KFFC 180910  
RWROBS  
WEATHER ROUNDUP FOR GEORGIA  
NATIONAL WEATHER SERVICE PEACHTREE CITY GA  
500 AM EDT MON JUN 18 2018  
 
NOTE: "FAIR" INDICATES FEW OR NO CLOUDS BELOW 12,000 FEET WITH NO  
SIGNIFICANT WEATHER AND/OR S TO VISIBILITY
.  
 
* = USE WITH CAUTION. THE STATIONS MARKED WITH AN ASTERISK MAY NOT  
REPORT WEATHER SUCH AS PRECIPITATION, FOG, OR THUNDER AND ARE NOT  
QUALITY CONTROLLED BY NWS.  
 
THE REMARK "TC" DENOTES TEMPERATURE READING IN DEGREES CELSIUS.  
 
GAZ001>058-181000-  
NORTH GEORGIA  
 
CITY SKY/WX TMP DP RH WIND PRES REMARKS
 
ATLANTA FAIR 71 67 87 NW5 30.14R  
ATHENS FAIR 71 71 100 CALM 30.12S  
CHAMBLEE FAIR 70 67 90 CALM 30.14R  
PEACHTREE CITY FAIR 70 68 93 CALM 30.14R  
ROME FOG 68 68 100 CALM 30.14S VSB 1/2  
WEST ATLANTA FAIR 70 70 100 CALM 30.14R  
GAINESVILLE FAIR 72 72 100 N3 30.16S  
CARTERSVILLE FOG 68 68 100 CALM 30.15R VSB 1/2  
BLAIRSVILLE FOG 64 64 99 CALM 30.20S VSB 1/4  
DECATUR N/A 68 66 93 CALM 30.14R  
CLEMSON FAIR 71 69 93 CALM 30.13F  
GREENVILLE FAIR 71 68 90 NE3 30.13R  
FLORENCE NOT AVBL  
CHARLESTON FAIR 76 74 93 S3 30.11S  
MYRTLE BEACH FAIR 76 74 93 SW5 30.12R  
FAYETTEVILLE FAIR 77 72 84 SW7 30.07S  
WILMINGTON FAIR 77 74 90 SW7 30.09R  
RALEIGH MOCLDY 77 73 87 SW3 30.08S  
DALTON FAIR 66 66 100 CALM 30.16R  
LAWRENCEVILLE FAIR 69 68 96 W6 30.13S  
MARIETTA FAIR 71 67 88 W5 30.14R  
KENNESAW FAIR 70 68 93 W6 30.15R  
WINDER FAIR 72 70 94 CALM 30.15F  
CANTON FAIR 68 64 88 CALM 30.16R  
TOCCOA FAIR 74 70 86 CALM 30.14S  
CORNELIA FAIR 69 69 100 NE3 30.16S  
JASPER FAIR -33 -35 86 NW6 30.19R WCI -50  
CHARLOTTE FAIR 74 70 87 CALM 30.11S  

 
 
GAZ059>098-102>109-181000-  
OTHER STATIONS  
 
CITY SKY/WX TMP DP RH WIND PRES REMARKS
 
AUGUSTA-BUSH FOG 70 70 100 CALM 30.11R VSB 1/4  
AUGUSTA-DANIEL FAIR 75 72 90 SE3 30.12S  
COLUMBUS FAIR 72 70 93 CALM 30.11R  
MACON MOCLDY 72 71 97 CALM 30.11R  
ROBINS AFB MOCLDY 72 71 97 CALM 30.11R  
GREENSBORO N/A 73 72 94 CALM 30.10R  
THOMSON FAIR 71 70 96 CALM 30.17R  
SANDERSVILLE NOT AVBL  
THOMASTON FAIR 72 68 88 N3 30.15R  
BUTLER N/A 73 72 97 W5 30.13S  
LAGRANGE FAIR 70 69 98 CALM 30.14R FOG  
MILLEDGEVILLE FAIR 73 73 100 CALM 30.11S FOG  
CARROLLTON FAIR 66 65 97 CALM 30.20R  
AMERICUS FAIR 70 64 83 CALM 30.13S  
CORDELE FAIR 72 71 98 CALM 30.12S  
SAVANNAH FAIR 73 72 96 CALM 30.12S  
NEW BERN LGT RAIN 74 74 100 E5 30.09R FOG  
HUNTSVILLE FAIR 72 70 93 CALM 30.13S  

 
 
GAZ099>101-110>166-181000-  
OTHER STATIONS  
 
CITY SKY/WX TMP DP RH WIND PRES REMARKS
 
VALDOSTA FAIR 70 70 100 CALM 30.11R  
ALMA FAIR 73 71 93 CALM 30.11S  
ST SIMONS CLOUDY 78 78 100 CALM 30.10S HX 81  
FT STEWART FAIR 72 71 96 CALM 30.10R  
ALBANY FAIR 72 71 97 CALM 30.13R  
HUNTER AFB FAIR 72 70 93 CALM 30.10R  
MOODY AFB FAIR 73 73 100 CALM 30.11R  
BRUNSWICK FAIR 73 70 88 CALM 30.11S  
BAINBRIDGE FAIR 75 72 88 CALM 30.11S  
MOULTRIE FAIR 72 72 100 CALM 30.12S  
VIDALIA FAIR 73 70 88 CALM 30.12S  
WAYCROSS FAIR 72 69 90 CALM 30.12S  
DOUGLAS MOCLDY 72 72 100 CALM 30.13R  
TIFTON FAIR N/A N/A N/A CALM 30.11S  
HAZELHURST FAIR 75 71 89 CALM 30.11R  
COLUMBIA FAIR 76 73 91 CALM 30.10S  
RALEIGH MOCLDY 77 73 87 SW3 30.08S  
GREENSBORO MOCLDY 75 71 87 CALM 30.09S  
HICKORY FAIR 71 71 100 W3 30.13R  
ASHEVILLE MOCLDY 64 63 96 CALM 30.22S FOG  
KNOXVILLE FAIR 69 66 90 S5 30.16R  
NASHVILLE CLEAR 74 67 78 S5 30.12S  
JACKSONMS FAIR 71 67 87 CALM 30.08S  
TUPELO NOT AVBL  
GREENWOOD FAIR 73 69 87 CALM 30.08R  
MERIDIAN FAIR 71 69 93 CALM 30.10S  
NEW ORLEANS CLOUDY 83 79 88 SE13 30.03S HX 94  

 
 
 
CLICK HERE TO GO TO PREVIOUS BULLETINS.

The Nexlab GA Page Main Text Page